TAP22EB LPPR-LEPA

Flight info

Callsign TAP22EB
Flight time N/A
Altitude 31000
Route PESUL9E PESUL DCT RIVRO DCT BARDI/N0432F320 M191 DIPOL/N0439F380 M871 NVS/N0437F370 DCT NANDO DCT MINGU DCT ABOSI DCT MABUX DCT RETBA DCT MOPIR DCT LASPO/N0399F260 M871 GODOX GODOX4M
Aircraft A320/M-SDE3FGHIRWY/LB1

Departure

Time 2026-05-01 11:48
Airport Francisco de Sá Carneiro Airport (LPPR)

Arrival

Time N/A
Airport Palma de Mallorca Airport (LEPA)
Time Latitude Longitude Altitude Speed Heading
2026-05-01 11:21 41.23734 -8.67265 245 ft 0 kts 69°
2026-05-01 11:39 41.23733 -8.67266 245 ft 1 kts 69°
2026-05-01 11:40 41.23724 -8.67296 245 ft 4 kts 68°
2026-05-01 11:40 41.23714 -8.67330 243 ft 4 kts 72°
2026-05-01 11:40 41.23709 -8.67363 242 ft 4 kts 99°
2026-05-01 11:40 41.23713 -8.67379 241 ft 0 kts 127°
2026-05-01 11:44 41.23710 -8.67375 241 ft 5 kts 132°
2026-05-01 11:44 41.23654 -8.67427 238 ft 13 kts 233°
2026-05-01 11:44 41.23613 -8.67604 233 ft 26 kts 259°
2026-05-01 11:44 41.23606 -8.67654 235 ft 0 kts 259°
2026-05-01 11:46 41.23605 -8.67656 233 ft 1 kts 259°
2026-05-01 11:46 41.23594 -8.67735 233 ft 17 kts 259°
2026-05-01 11:47 41.23657 -8.67825 231 ft 0 kts 345°
2026-05-01 11:47 41.23663 -8.67827 230 ft 5 kts 345°
2026-05-01 11:47 41.23921 -8.67891 224 ft 77 kts 348°
2026-05-01 11:48 41.24675 -8.68091 211 ft 140 kts 349°
2026-05-01 11:48 41.25776 -8.68373 419 ft 170 kts 349°
2026-05-01 11:48 41.26961 -8.68671 1081 ft 178 kts 349°
2026-05-01 11:48 41.28213 -8.68985 1709 ft 189 kts 349°
2026-05-01 11:49 41.29548 -8.69344 2230 ft 201 kts 348°
2026-05-01 11:49 41.30930 -8.69761 2846 ft 206 kts 346°
2026-05-01 11:49 41.32320 -8.70225 3557 ft 205 kts 345°
2026-05-01 11:49 41.33706 -8.70708 4197 ft 211 kts 346°
2026-05-01 11:50 41.35235 -8.71103 4592 ft 236 kts 349°
2026-05-01 11:50 41.36938 -8.71486 5032 ft 260 kts 350°
2026-05-01 11:50 41.38797 -8.71670 5706 ft 274 kts
2026-05-01 11:50 41.40599 -8.70825 6550 ft 280 kts 34°
2026-05-01 11:51 41.41942 -8.68959 7440 ft 281 kts 62°
2026-05-01 11:51 41.42491 -8.66483 8310 ft 282 kts 90°
2026-05-01 11:51 41.42133 -8.63940 9164 ft 282 kts 114°
2026-05-01 11:51 41.41311 -8.61545 10041 ft 286 kts 116°
2026-05-01 11:52 41.40452 -8.59090 10596 ft 302 kts 117°
2026-05-01 11:52 41.39524 -8.56452 10890 ft 326 kts 117°
2026-05-01 11:52 41.38545 -8.53660 11462 ft 337 kts 117°
2026-05-01 11:52 41.37551 -8.50803 12185 ft 344 kts 117°
2026-05-01 11:53 41.36546 -8.47892 12913 ft 348 kts 117°
2026-05-01 11:53 41.35542 -8.44974 13625 ft 353 kts 117°
2026-05-01 11:53 41.34513 -8.41987 14327 ft 357 kts 117°
2026-05-01 11:53 41.33474 -8.38976 15016 ft 360 kts 117°
2026-05-01 11:54 41.32421 -8.35926 15697 ft 364 kts 117°
2026-05-01 11:54 41.31354 -8.32850 16371 ft 368 kts 117°
2026-05-01 11:54 41.30274 -8.29749 17018 ft 371 kts 118°
2026-05-01 11:54 41.29180 -8.26615 17669 ft 375 kts 117°
2026-05-01 11:55 41.28080 -8.23461 18270 ft 378 kts 118°
2026-05-01 11:55 41.26968 -8.20277 18874 ft 381 kts 118°
2026-05-01 11:55 41.25844 -8.17064 19447 ft 385 kts 118°
2026-05-01 11:55 41.24708 -8.13821 20012 ft 389 kts 118°
2026-05-01 11:56 41.23558 -8.10543 20572 ft 392 kts 118°
2026-05-01 11:56 41.22400 -8.07242 21104 ft 396 kts 118°
2026-05-01 11:56 41.21236 -8.03920 21603 ft 399 kts 118°
2026-05-01 11:56 41.20056 -8.00558 22096 ft 403 kts 118°
2026-05-01 11:57 41.18869 -7.97180 22592 ft 406 kts 117°
2026-05-01 11:57 41.18076 -7.94925 22923 ft 407 kts 118°
2026-05-01 11:57 41.16461 -7.90341 23529 ft 412 kts 118°
2026-05-01 11:57 41.15243 -7.86895 23986 ft 415 kts 118°
2026-05-01 11:58 41.14011 -7.83410 24421 ft 418 kts 117°
2026-05-01 11:58 41.12774 -7.79913 24822 ft 421 kts 118°
2026-05-01 11:58 41.10280 -7.72885 25610 ft 427 kts 118°
2026-05-01 11:59 41.09007 -7.69313 25992 ft 430 kts 118°
2026-05-01 11:59 41.07724 -7.65712 26366 ft 433 kts 118°
2026-05-01 11:59 41.06431 -7.62081 26728 ft 436 kts 118°
2026-05-01 12:00 41.03827 -7.54768 27459 ft 442 kts 118°
2026-05-01 12:00 41.02511 -7.51080 27814 ft 445 kts 118°
2026-05-01 12:00 40.99837 -7.43613 28488 ft 450 kts 118°
2026-05-01 12:01 40.98488 -7.39864 28826 ft 453 kts 118°
2026-05-01 12:01 40.97128 -7.36090 29148 ft 456 kts 118°
2026-05-01 12:01 40.95758 -7.32291 29450 ft 458 kts 118°
2026-05-01 12:01 40.94381 -7.28478 29764 ft 460 kts 118°
2026-05-01 12:02 40.92999 -7.24654 30045 ft 463 kts 118°
2026-05-01 12:02 40.91605 -7.20796 30327 ft 465 kts 118°
2026-05-01 12:02 40.90207 -7.16928 30600 ft 467 kts 118°
2026-05-01 12:02 40.88800 -7.13047 30898 ft 469 kts 118°
2026-05-01 12:03 40.87380 -7.09137 31165 ft 472 kts 119°
2026-05-01 12:03 40.85956 -7.05217 31395 ft 475 kts 119°
2026-05-01 12:03 40.84526 -7.01280 31693 ft 475 kts 118°
2026-05-01 12:03 40.83100 -6.97350 32052 ft 475 kts 119°
2026-05-01 12:04 40.81673 -6.93421 32161 ft 474 kts 119°
2026-05-01 12:04 40.78817 -6.85601 32185 ft 473 kts 119°
2026-05-01 12:05 40.75949 -6.77783 32187 ft 473 kts 119°
2026-05-01 12:05 40.71663 -6.66126 32189 ft 473 kts 119°
2026-05-01 12:06 40.68786 -6.58332 32188 ft 473 kts 119°
2026-05-01 12:06 40.65900 -6.50553 32190 ft 473 kts 119°
2026-05-01 12:07 40.63011 -6.42757 32192 ft 473 kts 119°
2026-05-01 12:07 40.60118 -6.34984 32193 ft 473 kts 118°
2026-05-01 12:08 40.58043 -6.26800 32192 ft 479 kts 102°
2026-05-01 12:08 40.57200 -6.18094 32189 ft 480 kts 99°
2026-05-01 12:09 40.56495 -6.10781 32193 ft 480 kts 99°
2026-05-01 12:09 40.55641 -6.02131 32193 ft 480 kts 99°
2026-05-01 12:10 40.54350 -5.89071 32193 ft 480 kts 99°
2026-05-01 12:11 40.53052 -5.76031 32194 ft 479 kts 99°
2026-05-01 12:11 40.52176 -5.67342 32193 ft 479 kts 99°
2026-05-01 12:12 40.51295 -5.58660 32194 ft 479 kts 99°
2026-05-01 12:12 40.50400 -5.49981 32195 ft 479 kts 99°
2026-05-01 12:13 40.49503 -5.41318 32194 ft 479 kts 99°
2026-05-01 12:13 40.48609 -5.32655 32194 ft 478 kts 99°
2026-05-01 12:14 40.47712 -5.24062 32193 ft 478 kts 99°
2026-05-01 12:14 40.46798 -5.15411 32196 ft 478 kts 99°
2026-05-01 12:15 40.45879 -5.06757 32189 ft 477 kts 99°
2026-05-01 12:15 40.44953 -4.98130 32194 ft 478 kts 99°
2026-05-01 12:16 40.44024 -4.89494 32204 ft 477 kts 99°
2026-05-01 12:16 40.43091 -4.80865 32199 ft 477 kts 99°
2026-05-01 12:17 40.42153 -4.72258 32197 ft 476 kts 99°
2026-05-01 12:17 40.41205 -4.63653 32191 ft 476 kts 99°
2026-05-01 12:18 40.40254 -4.55041 32196 ft 477 kts 99°
2026-05-01 12:18 40.39782 -4.50785 32487 ft 477 kts 99°
2026-05-01 12:18 40.39299 -4.46481 32864 ft 476 kts 99°
2026-05-01 12:19 40.38808 -4.42135 33266 ft 475 kts 99°
2026-05-01 12:19 40.38326 -4.37863 33646 ft 473 kts 99°
2026-05-01 12:19 40.37853 -4.33668 34021 ft 471 kts 99°
2026-05-01 12:19 40.37374 -4.29413 34380 ft 470 kts 99°
2026-05-01 12:20 40.36891 -4.25175 34740 ft 470 kts 100°
2026-05-01 12:20 40.36321 -4.20972 35061 ft 468 kts 102°
2026-05-01 12:20 40.35641 -4.16796 35374 ft 468 kts 104°
2026-05-01 12:20 40.34886 -4.12641 35666 ft 467 kts 105°
2026-05-01 12:21 40.34102 -4.08513 35937 ft 467 kts 105°
2026-05-01 12:21 40.33313 -4.04375 36212 ft 467 kts 105°
2026-05-01 12:21 40.32546 -4.00247 36449 ft 467 kts 104°
2026-05-01 12:21 40.31799 -3.96090 36680 ft 468 kts 104°
2026-05-01 12:22 40.31071 -3.91941 36949 ft 466 kts 104°
2026-05-01 12:22 40.30353 -3.87810 37252 ft 464 kts 104°
2026-05-01 12:22 40.29638 -3.83686 37544 ft 462 kts 104°
2026-05-01 12:22 40.28927 -3.79595 37819 ft 461 kts 104°
2026-05-01 12:23 40.28210 -3.75508 38032 ft 460 kts 104°
2026-05-01 12:23 40.27485 -3.71418 38167 ft 461 kts 104°
2026-05-01 12:23 40.26027 -3.63300 38193 ft 461 kts 104°
2026-05-01 12:24 40.24557 -3.55142 38190 ft 460 kts 104°
2026-05-01 12:24 40.23090 -3.46996 38183 ft 460 kts 104°
2026-05-01 12:25 40.20867 -3.34776 38163 ft 460 kts 104°
2026-05-01 12:26 40.19386 -3.26635 38168 ft 460 kts 104°
2026-05-01 12:26 40.17150 -3.14421 38169 ft 460 kts 104°
2026-05-01 12:27 40.14898 -3.02223 38183 ft 460 kts 104°
2026-05-01 12:28 40.12639 -2.90022 38184 ft 460 kts 104°
2026-05-01 12:29 40.10369 -2.77829 38188 ft 461 kts 104°
2026-05-01 12:29 40.08081 -2.65642 38194 ft 461 kts 104°
2026-05-01 12:30 40.05787 -2.53512 38201 ft 461 kts 104°
2026-05-01 12:31 40.04246 -2.45381 38203 ft 461 kts 104°
2026-05-01 12:31 40.02696 -2.37247 38206 ft 462 kts 104°
2026-05-01 12:32 40.01135 -2.29116 38211 ft 462 kts 104°
2026-05-01 12:32 39.98774 -2.16900 38212 ft 463 kts 105°
2026-05-01 12:33 39.97008 -2.08843 38223 ft 462 kts 107°
2026-05-01 12:33 39.95075 -2.00847 38224 ft 463 kts 108°
2026-05-01 12:34 39.93151 -1.92836 38230 ft 462 kts 108°
2026-05-01 12:34 39.91294 -1.84876 38233 ft 462 kts 107°
2026-05-01 12:35 39.89425 -1.76866 38236 ft 462 kts 107°
2026-05-01 12:35 39.87541 -1.68862 38236 ft 462 kts 107°
2026-05-01 12:36 39.85647 -1.60853 38242 ft 463 kts 107°
2026-05-01 12:36 39.83752 -1.52855 38245 ft 463 kts 108°
2026-05-01 12:37 39.81848 -1.44862 38244 ft 463 kts 108°
2026-05-01 12:37 39.79864 -1.36901 38243 ft 463 kts 114°
2026-05-01 12:38 39.76463 -1.29884 38231 ft 458 kts 134°
2026-05-01 12:38 39.71532 -1.24774 38245 ft 453 kts 154°
2026-05-01 12:39 39.65824 -1.21357 38242 ft 452 kts 158°
2026-05-01 12:39 39.60095 -1.17996 38243 ft 453 kts 155°
2026-05-01 12:40 39.54968 -1.13222 38246 ft 459 kts 136°
2026-05-01 12:40 39.51225 -1.06523 38244 ft 462 kts 120°